{"data":{"norad_id":68237,"epoch":"2026-05-25T02:55:59.332800Z","epoch_age_seconds":64181,"freshness":"FRESH","line1":"1 68237U 26054F   26145.12221450  .00040588  00000+0  12045-2 0  9996","line2":"2 68237  53.1601 295.4221 0002068  82.8261 277.2977 15.34437296 10783","mean_motion":15.34437296,"eccentricity":0.0002068,"inclination_deg":53.1601,"raan_deg":295.4221,"arg_perigee_deg":82.8261,"mean_anomaly_deg":277.2977,"bstar":0.0012045,"rev_number":1078,"period_min":93.84547701974,"perigee_km":461.1777280426,"apogee_km":464.00705371867,"semimajor_km":6840.7293908806,"source":"CELESTRAK","updated_at":"2026-05-25T13:38:21.883848Z"}}